Weather observations for the past three days for
Menominee - Marinette Twin County Airport
Imperial (Metric)
Date Time (cdt) Wind (mph) Vis. (mi.) Weather Sky Cond. Temperature (ºF) Relative Humidity Wind Chill (°F) Heat Index (°F) Pressure Precipitation (in)
Air Dwpt 6 hour altimeter (in) sea level (mb) 1 hr 3 hr 6 hr
Max. Min.
20 18:57 N 7 10.00 Light Rain BKN049 OVC070 70 69.1 82.9 69.1 97% 30.07 1019.5
20 17:57 N 5 10.00 Overcast BKN050 BKN060 OVC075 73 66 79% 30.06 1019.3
20 16:57 E 14 10.00 Overcast BKN050 OVC065 75 66.9 76% 76 30.05 1018.8
20 15:57 SW 9 10.00 Mostly Cloudy BKN095 82.9 64 53% 84 30.04 1018.4
20 14:57 SW 8 10.00 Mostly Cloudy FEW060 BKN090 82 64 55% 84 30.04 1018.4
20 13:57 Vrbl 5 10.00 Overcast SCT050 OVC080 81 63 54% 82 30.06 1019.0
20 12:57 W 7 10.00 Fair CLR 82 64 82 64 55% 84 30.07 1019.1
20 11:57 Vrbl 6 10.00 Fair CLR 80.1 63 56% 81 30.07 1019.1
20 10:57 W 8 10.00 Fair CLR 78.1 63 60% 80 30.08 1019.6
20 09:57 Vrbl 5 10.00 Fair CLR 75 62.1 64% 77 30.08 1019.6
20 08:57 W 5 10.00 Fair CLR 72 61 68% 30.09 1020.0
20 07:57 Vrbl 5 10.00 Fair CLR 68 60.1 76% 30.09 1020.2
20 06:57 W 3 10.00 Fair CLR 64 59 64.9 60.1 84% 30.08 1019.9
20 05:57 Vrbl 3 10.00 Fair CLR 60.1 57.9 93% 30.08 1019.7
20 04:57 Calm 10.00 Fair CLR 61 57.9 90% 30.07 1019.5
20 03:57 Calm 10.00 Fair CLR 62.1 57.9 86% 30.06 1019.1
20 02:57 Calm 10.00 Fair CLR 63 57.9 84% 30.06 1019.1
20 01:57 W 5 10.00 Fair CLR 64.9 57.9 78% 30.06 1019.1
20 00:57 SW 3 10.00 Fair CLR 64.9 57.9 77 64.9 78% 30.07 1019.5
19 23:57 Calm 10.00 Fair CLR 66.9 57.9 73% 30.08 1019.7
19 22:57 SW 6 10.00 Fair CLR 68 57.9 70% 30.08 1019.8
19 21:57 SW 6 10.00 Fair CLR 70 59 68% 30.07 1019.5
19 20:57 SW 5 10.00 Fair CLR 71.1 59 66% 30.07 1019.4
19 19:57 SW 5 7.00 Fair CLR 73.9 61 64% 30.06 1019.1
19 18:57 SW 7 5.00 Fair with Haze CLR 77 61 79 77 58% 79 30.06 1019.2
19 17:57 SW 6 8.00 Fair CLR 79 59 50% 80 30.06 1019.4
19 16:57 SW 10 10.00 Fair CLR 79 59 50% 80 30.07 1019.7
19 15:57 S 13 10.00 Mostly Cloudy SCT060 BKN075 79 59 50% 80 30.09 1020.3
19 14:57 S 12 10.00 Partly Cloudy SCT060 77 57.9 52% 79 30.1 1020.6
19 13:57 SW 14 G 18 10.00 A Few Clouds FEW060 78.1 60.1 54% 79 30.11 1020.8
19 12:57 Vrbl 6 10.00 Partly Cloudy SCT055 77 55.9 78.1 59 48% 79 30.12 1021.1
19 11:57 W 8 10.00 A Few Clouds FEW055 77 55.9 48% 79 30.13 1021.5
19 10:57 Vrbl 6 10.00 Fair CLR 75 55.9 52% 78 30.15 1022.1
19 09:57 W 6 10.00 Fair CLR 73 57 57% 30.16 1022.6
19 08:57 W 6 10.00 Fair CLR 69.1 57.9 68% 30.17 1023.1
19 07:57 W 5 10.00 Fair CLR 63 57 81% 30.17 1023.3
19 06:57 Calm 10.00 Fair CLR 59 55 63 55 87% 30.17 1023.1
19 05:57 Calm 10.00 Fair CLR 55 55 100% 30.15 1022.6
19 04:57 Calm 9.00 Fair CLR 55 55 100% 30.15 1022.5
19 03:57 Calm 10.00 Fair CLR 57 57 100% 30.14 1022.1
19 02:57 Calm 10.00 Fair CLR 57.9 57.9 100% 30.13 1021.9
19 01:57 Calm 10.00 Fair CLR 60.1 57.9 93% 30.13 1021.9
19 00:57 Calm 10.00 Fair CLR 63 59 70 62.1 87% 30.14 1022.0
18 23:57 SW 5 10.00 Fair CLR 62.1 60.1 93% 30.14 1022.1
18 22:57 S 5 10.00 Fair CLR 63 57.9 84% 30.15 1022.3
18 21:57 S 7 10.00 Fair CLR 64 57.9 81% 30.16 1022.7
18 20:57 S 6 10.00 Fair CLR 64.9 57.9 78% 30.15 1022.5
18 19:57 S 8 10.00 Fair CLR 68 57.9 70% 30.15 1022.5
18 18:57 S 9 10.00 Fair CLR 70 57.9 73 68 66% 30.15 1022.6
18 17:57 S 12 10.00 Fair CLR 72 57 59% 30.16 1022.8
18 16:57 S 10 10.00 Fair CLR 72 53.1 52% 30.17 1023.2
18 15:57 SE 7 10.00 Fair CLR 72 52 50% 30.17 1023.4
18 14:57 SE 10 10.00 Fair CLR 71.1 52 51% 30.18 1023.8
18 13:57 E 9 10.00 Fair CLR 69.1 54 59% 30.19 1024.1
18 12:57 SE 14 10.00 A Few Clouds FEW050 69.1 55.9 72 55 63% 30.19 1024.2
18 11:57 N 12 G 16 10.00 A Few Clouds FEW048 71.1 51.1 49% 30.19 1023.9
18 10:57 N 10 G 18 10.00 Fair CLR 69.1 52 55% 30.19 1024.1
18 09:57 N 7 10.00 Fair CLR 66 54 65% 30.19 1024.0
18 08:57 N 7 10.00 Fair CLR 63 54 73% 30.2 1024.3
18 07:57 Vrbl 7 10.00 Fair CLR 57.9 53.1 84% 30.2 1024.5
18 06:57 Calm 10.00 Fair CLR 55 53.1 55 51.1 93% 30.2 1024.6
18 05:57 Calm 10.00 A Few Clouds FEW050 51.1 51.1 100% 30.2 1024.4
18 04:57 Calm 10.00 Fair CLR 51.1 51.1 100% 30.18 1023.9
18 03:57 Calm 10.00 Fair CLR 52 52 100% 30.17 1023.3
18 02:57 NW 3 10.00 Fair CLR 53.1 53.1 100% 30.16 1022.9
18 01:57 NW 3 10.00 Fair CLR 53.1 53.1 100% 30.16 1023.0
18 00:57 Calm 10.00 Fair CLR 55 53.1 66 54 93% 30.16 1022.8
17 23:57 NW 3 10.00 A Few Clouds FEW055 55.9 53.1 90% 30.15 1022.7
17 22:57 Calm 10.00 A Few Clouds FEW050 55 53.1 93% 30.14 1022.5
17 21:57 Calm 10.00 Fair CLR 57 52 83% 30.13 1021.9
17 20:57 N 3 10.00 Fair CLR 61 51.1 70% 30.11 1021.3
17 19:57 N 10 10.00 Fair CLR 64 51.1 63% 30.1 1021.0
Date Time (cdt) Wind (mph) Vis. (mi.) Weather Sky Cond. Air Dwpt Max. Min. Relative Humidity Wind Chill (°F) Heat Index (°F) altimeter (in) sea level (mb) 1 hr 3 hr 6 hr
6 hour
Temperature (ºF) Pressure Precipitation (in)